Location: Slanting_Bridge
(35.6330°N, 80.9830°W)
Time: 02:49:33
(UTC-04:00)

Amateur Radio Satellites - All Passes

Search period start: 24 June 2017 02:19
Search period end: 25 June 2017 02:19
Location: Slanting_Bridge, 35.6330°N, 80.9830°W

Satellite Date Start Highest point End Downlink Frequencies (MHz)
Time Altitude Azimuth
ITUPSAT 1 24 Jun 02:25:03 02:26:57 12° 63° (ENE) 02:28:51 437.325
POLYITAN 1 24 Jun 02:30:21 02:32:30 14° 294° (WNW) 02:34:38 437.675
BEESAT 24 Jun 02:35:13 02:38:08 16° 65° (ENE) 02:41:04 436.000
RS-15 24 Jun 02:53:26 02:59:29 14° 358° (N) 03:05:28 29.354- 29.394
Oscar 19 24 Jun 02:59:12 03:04:20 89° 92° (E) 03:09:28 437.125/150
BUGSAT 1 24 Jun 03:03:49 03:07:10 23° 291° (WNW) 03:10:29 437.445
DX 1 24 Jun 03:09:22 03:10:56 12° 267° (W) 03:12:29 434.975-435.025
ITAMSAT 1 24 Jun 03:34:59 03:37:09 12° 92° (E) 03:39:17 435.822/435.867
Gurwin Techsat 1B 24 Jun 03:37:32 03:42:49 66° 286° (WNW) 03:48:05 435.225
MOZHAYETS 4 24 Jun 03:57:50 04:02:27 75° 76° (ENE) 04:07:06
ITUPSAT 1 24 Jun 03:59:25 04:04:10 65° 258° (WSW) 04:08:58 437.325
BEESAT 24 Jun 04:10:53 04:15:28 47° 260° (W) 04:20:07 436.000
KKS-1 24 Jun 04:11:38 04:13:10 12° 64° (ENE) 04:14:42 437.445
AO-7 24 Jun 04:27:55 04:35:55 47° 101° (ESE) 04:43:51 .
CUBESAT XI-V 24 Jun 04:34:29 04:38:34 31° 71° (ENE) 04:42:39 437.345
STARS 24 Jun 04:46:36 04:48:04 12° 64° (ENE) 04:49:32 437.465
NO-84 24 Jun 04:50:33 04:52:32 13° 26° (NNE) 04:54:30 435.350 FM
RS-15 24 Jun 05:08:47 05:18:31 26° 35° (NE) 05:27:53 29.354- 29.394
ITAMSAT 1 24 Jun 05:11:48 05:17:00 66° 286° (WNW) 05:22:09 435.822/435.867
KKS-1 24 Jun 05:44:50 05:49:10 58° 259° (W) 05:53:33 437.445
BEESAT 3 24 Jun 06:06:59 06:09:06 14° 48° (NE) 06:11:13 437.485
CUBESAT XI-V 24 Jun 06:12:23 06:15:56 21° 265° (W) 06:19:28 437.345
STARS 24 Jun 06:19:34 06:23:52 57° 259° (W) 06:28:12 437.465
AO-7 24 Jun 06:21:00 06:28:24 37° 298° (WNW) 06:35:47 .
NO-84 24 Jun 06:26:37 06:30:56 60° 44° (NE) 06:35:04 435.350 FM
NUDT-PHONESAT 24 Jun 06:37:25 06:37:49 10° 92° (E) 06:38:13 437.300
AO-85 24 Jun 06:39:55 06:44:02 58° 59° (ENE) 06:48:25 145.980
XW-2F 24 Jun 06:45:23 06:48:00 18° 95° (E) 06:50:37 145.980 - 146.000
XW-2D 24 Jun 06:47:52 06:50:47 21° 95° (E) 06:53:41 145.860 - 145.880
LilacSat-2 24 Jun 06:53:44 06:56:57 26° 96° (E) 07:00:09 437.200
XW-2B 24 Jun 06:56:34 06:59:47 26° 97° (E) 07:02:58 145.730 - 145.750
BEESAT 2 24 Jun 07:01:19 07:04:11 18° 50° (NE) 07:07:02 435.950
DOVE 4 24 Jun 07:10:59 07:15:54 80° 283° (WNW) 07:21:04 437.250
XW-2C 24 Jun 07:11:38 07:15:15 43° 99° (E) 07:18:49 145.795 - 145.815
RS-15 24 Jun 07:20:58 07:33:09 83° 60° (ENE) 07:44:39 29.354- 29.394
KAITUO 1B 24 Jun 07:30:03 07:33:42 58° 100° (E) 07:37:20 145.475/437.950
STRAND 1 24 Jun 07:40:58 07:45:54 50° 72° (ENE) 07:50:52 437.568
CUTE-I 24 Jun 07:42:04 07:47:28 77° 103° (ESE) 07:52:50 437.470
BEESAT 3 24 Jun 07:43:06 07:46:58 49° 245° (WSW) 07:50:46 437.485
O/OREOS (USA 219) 24 Jun 07:46:13 07:49:31 20° 61° (ENE) 07:52:48 437.305
XW-2A 24 Jun 07:54:02 07:54:17 10° 92° (E) 07:54:33 145.665 - 145.685
Tancredo 1 24 Jun 08:00:32 08:02:26 15° 129° (SE) 08:04:19 437.200
NO-84 24 Jun 08:05:39 08:08:02 15° 240° (WSW) 08:10:21 435.350 FM
NUDT-PHONESAT 24 Jun 08:08:25 08:11:53 39° 286° (WNW) 08:15:19 437.300
HO-68 24 Jun 08:15:20 08:22:05 42° 99° (E) 08:28:46 435.675
XW-2F 24 Jun 08:19:03 08:22:04 23° 289° (WNW) 08:25:04 145.980 - 146.000
XW-2D 24 Jun 08:22:01 08:24:50 20° 290° (WNW) 08:27:37 145.860 - 145.880
AO-85 24 Jun 08:22:44 08:24:00 11° 251° (WSW) 08:25:19 145.980
LilacSat-2 24 Jun 08:28:31 08:31:00 17° 291° (WNW) 08:33:27 437.200
SEEDS 24 Jun 08:29:02 08:32:45 31° 97° (E) 08:36:25 437.485
XW-2B 24 Jun 08:31:18 08:33:44 17° 291° (WNW) 08:36:08 145.730 - 145.750
CUBEBUG 2 24 Jun 08:37:13 08:41:28 32° 97° (E) 08:45:34 437.445
BEESAT 2 24 Jun 08:38:20 08:42:03 35° 246° (WSW) 08:45:42 435.950
CUTE 1.7 + AOD 2 24 Jun 08:42:55 08:47:07 79° 102° (ESE) 08:51:18 437.475
XW-2C 24 Jun 08:48:11 08:48:59 11° 293° (WNW) 08:49:48 145.795 - 145.815
Oscar 11 24 Jun 09:09:29 09:11:54 15° 93° (E) 09:14:17 .
ZACube-1 24 Jun 09:13:22 09:17:03 25° 95° (E) 09:20:38 437.345
UWE-3 24 Jun 09:14:12 09:18:39 49° 99° (E) 09:22:58 435.000/436.395/437.385
YUBILEINY 24 Jun 09:16:26 09:24:23 36° 74° (ENE) 09:32:14 435.215
STRAND 1 24 Jun 09:22:10 09:25:18 16° 267° (W) 09:28:28 437.568
XW-2A 24 Jun 09:24:03 09:27:08 32° 286° (WNW) 09:30:11 145.665 - 145.685
CUTE-I 24 Jun 09:24:36 09:26:48 13° 298° (WNW) 09:28:59 437.470
AAUSAT CUBESAT 2 24 Jun 09:24:38 09:28:43 66° 100° (E) 09:32:48 437.432
O/OREOS (USA 219) 24 Jun 09:24:58 09:28:58 32° 256° (WSW) 09:32:56 437.305
FO-29 24 Jun 09:30:16 09:35:12 28° 64° (ENE) 09:40:40 435.910
ISS 24 Jun 09:34:44 09:38:00 85° 312° (NW) 09:41:18 437.550
Tancredo 1 24 Jun 09:34:59 09:37:47 34° 323° (NW) 09:40:37 437.200
RS-15 24 Jun 09:35:38 09:44:02 23° 260° (W) 09:52:10 29.354- 29.394
TIGRISAT 24 Jun 09:54:48 09:58:30 25° 69° (ENE) 10:02:17 435.000
HO-68 24 Jun 10:03:20 10:09:34 33° 295° (WNW) 10:15:46 435.675
SEEDS 24 Jun 10:05:21 10:08:10 18° 291° (WNW) 10:10:59 437.485
M-CUBED/EXP-1 PRIME 24 Jun 10:07:35 10:10:55 63° 255° (WSW) 10:14:10 437.505
CUBEBUG 2 24 Jun 10:14:15 10:17:48 22° 292° (WNW) 10:21:18 437.445
AO-73 24 Jun 10:14:50 10:19:15 67° 284° (WNW) 10:23:32 145.935
PRISM 24 Jun 10:14:59 10:18:50 44° 73° (ENE) 10:22:42 437.425
UNISAT 6 24 Jun 10:35:27 10:39:59 78° 76° (ENE) 10:44:40 437.425
Oscar 11 24 Jun 10:44:08 10:48:09 39° 287° (WNW) 10:52:09 .
ZACube-1 24 Jun 10:49:35 10:53:12 24° 290° (WNW) 10:56:43 437.345
UWE-3 24 Jun 10:52:13 10:54:37 14° 294° (WNW) 10:56:58 435.000/436.395/437.385
EO-88 24 Jun 10:53:03 10:56:28 37° 98° (E) 10:59:51 145.990 - 145.960
DELFI C3 24 Jun 11:05:22 11:09:19 88° 284° (WNW) 11:13:15 145.870
YUBILEINY 24 Jun 11:13:01 11:21:12 44° 272° (W) 11:29:20 435.215
ISS 24 Jun 11:13:23 11:14:55 13° 335° (NNW) 11:16:27 437.550
FO-29 24 Jun 11:14:30 11:19:56 41° 264° (W) 11:26:06 435.910
AIST 2D 24 Jun 11:30:28 11:33:37 31° 73° (ENE) 11:36:47 435.315
TIGRISAT 24 Jun 11:31:10 11:35:02 27° 264° (W) 11:39:00 435.000
POLYITAN 1 24 Jun 11:42:59 11:46:21 23° 70° (ENE) 11:49:45 437.675
PRISM 24 Jun 11:53:02 11:54:19 11° 267° (W) 11:55:35 437.425
QB50P2 24 Jun 11:53:13 11:57:01 33° 72° (ENE) 12:00:52 145.880/145.840
PCSat 24 Jun 11:54:26 11:58:16 20° 105° (ESE) 12:02:07 145.827
BUGSAT 1 24 Jun 12:16:50 12:18:32 12° 66° (ENE) 12:20:16 437.445
EO-79 24 Jun 12:17:50 12:22:00 60° 75° (ENE) 12:26:13 145.935-145.965
EO-88 24 Jun 12:28:38 12:29:44 11° 293° (WNW) 12:30:51 145.990 - 145.960
DUCHIFAT 1 24 Jun 12:33:33 12:37:45 75° 76° (ENE) 12:42:00 145.980
Oscar 19 24 Jun 12:38:49 12:39:32 10° 61° (ENE) 12:40:17 437.125/150
NANOSAT C BR1 24 Jun 12:41:16 12:45:29 78° 259° (W) 12:49:44 145.865
ESTCUBE 1 24 Jun 12:49:05 12:53:34 74° 102° (ESE) 12:58:01 437.505/2401.250
LO-87 24 Jun 12:53:56 12:57:22 40° 286° (WNW) 13:00:47 145.935 - 145.965
VELOX 1 24 Jun 12:57:52 13:01:03 19° 95° (E) 13:04:12 145.980
AIST 2D 24 Jun 13:05:25 13:06:53 12° 267° (W) 13:08:21 435.315
Gurwin Techsat 1B 24 Jun 13:18:07 13:21:26 17° 64° (ENE) 13:24:45 435.225
POLYITAN 1 24 Jun 13:18:29 13:21:59 25° 264° (W) 13:25:32 437.675
DX 1 24 Jun 13:24:04 13:24:58 11° 92° (E) 13:25:53 434.975-435.025
SPROUT 24 Jun 13:28:48 13:33:00 49° 100° (E) 13:37:08 437.525
QB50P2 24 Jun 13:30:03 13:32:51 17° 266° (W) 13:35:40 145.880/145.840
PCSat 24 Jun 13:36:02 13:41:15 47° 301° (WNW) 13:46:29 145.827
UKube-1 24 Jun 13:43:25 13:45:01 12° 93° (E) 13:46:38 .
BUGSAT 1 24 Jun 13:49:29 13:53:26 46° 261° (W) 13:57:28 437.445
Oscar 19 24 Jun 14:12:55 14:18:06 86° 260° (W) 14:23:16 437.125/150
50 SAT 24 Jun 14:25:38 14:29:01 70° 284° (WNW) 14:32:24 437.505
JUGNU 24 Jun 14:32:04 14:35:13 15° 171° (S) 14:38:23 437.505
VELOX 1 24 Jun 14:33:33 14:37:30 32° 289° (WNW) 14:41:27 145.980
ITAMSAT 1 24 Jun 14:49:56 14:52:57 16° 64° (ENE) 14:55:58 435.822/435.867
Gurwin Techsat 1B 24 Jun 14:55:42 15:00:53 55° 259° (W) 15:06:06 435.225
DX 1 24 Jun 14:57:09 15:01:26 56° 286° (WNW) 15:05:42 434.975-435.025
SPROUT 24 Jun 15:06:31 15:08:25 13° 294° (WNW) 15:10:19 437.525
SO-50 24 Jun 15:15:56 15:20:30 89° 293° (WNW) 15:25:04 436.795
UKube-1 24 Jun 15:17:06 15:21:16 49° 286° (WNW) 15:25:26 .
AO-7 24 Jun 15:23:31 15:31:25 50° 65° (ENE) 15:39:20 .
MOZHAYETS 4 24 Jun 15:56:34 16:00:04 21° 95° (E) 16:03:33
Tancredo 1 24 Jun 16:01:19 16:04:19 55° 40° (NE) 16:07:17 437.200
ITUPSAT 1 24 Jun 16:02:56 16:07:27 39° 99° (E) 16:11:54 437.325
ISS 24 Jun 16:05:10 16:08:07 29° 35° (NE) 16:11:03 437.550
BEESAT 24 Jun 16:13:40 16:18:21 54° 100° (E) 16:23:00 436.000
SRMSAT 24 Jun 16:16:21 16:17:40 11° 166° (SSE) 16:18:58 437.500
JUGNU 24 Jun 16:19:44 16:23:29 17° 182° (S) 16:27:14 437.505
ITAMSAT 1 24 Jun 16:26:46 16:31:52 58° 259° (WSW) 16:37:01 435.822/435.867
SO-50 24 Jun 17:00:33 17:01:36 11° 317° (NW) 17:02:38 436.795
AO-7 24 Jun 17:17:04 17:24:17 33° 262° (W) 17:31:36 .
CUTE-I 24 Jun 17:25:59 17:26:59 10° 60° (ENE) 17:27:58 437.470
MOZHAYETS 4 24 Jun 17:33:12 17:37:12 30° 289° (WNW) 17:41:11
KKS-1 24 Jun 17:38:44 17:42:46 32° 98° (E) 17:46:46 437.445
ITUPSAT 1 24 Jun 17:41:36 17:44:55 19° 294° (WNW) 17:48:14 437.325
ISS 24 Jun 17:41:50 17:44:30 22° 230° (SW) 17:47:08 437.550
XW-2C 24 Jun 17:51:10 17:53:22 15° 69° (ENE) 17:55:33 145.795 - 145.815
BEESAT 24 Jun 17:53:05 17:55:38 14° 295° (WNW) 17:58:09 436.000
SRMSAT 24 Jun 18:02:29 18:06:03 16° 176° (S) 18:09:37 437.500
KAITUO 1B 24 Jun 18:07:53 18:10:29 18° 70° (ENE) 18:13:04 145.475/437.950
JUGNU 24 Jun 18:09:12 18:11:44 13° 192° (SSW) 18:14:15 437.505
CUBESAT XI-V 24 Jun 18:10:24 18:14:58 70° 284° (WNW) 18:19:32 437.345
STARS 24 Jun 18:11:55 18:15:51 31° 98° (E) 18:19:46 437.465
DOVE 4 24 Jun 18:13:56 18:18:02 71° 75° (ENE) 18:22:15 437.250
HO-68 24 Jun 18:41:53 18:47:21 24° 61° (ENE) 18:52:48 435.675
NUDT-PHONESAT 24 Jun 18:44:06 18:47:44 52° 75° (ENE) 18:51:25 437.300
XW-2F 24 Jun 18:55:47 18:59:37 82° 258° (WSW) 19:03:28 145.980 - 146.000
XW-2D 24 Jun 18:58:58 19:02:47 67° 259° (W) 19:06:37 145.860 - 145.880
CUTE-I 24 Jun 19:00:53 19:06:12 88° 261° (W) 19:11:34 437.470
LilacSat-2 24 Jun 19:05:52 19:09:39 52° 260° (W) 19:13:27 437.200
XW-2B 24 Jun 19:08:01 19:11:46 52° 260° (W) 19:15:32 145.730 - 145.750
KKS-1 24 Jun 19:15:47 19:19:04 20° 292° (WNW) 19:22:21 437.445
SEEDS 24 Jun 19:18:48 19:21:17 16° 68° (ENE) 19:23:46 437.485
XW-2C 24 Jun 19:23:48 19:27:15 32° 263° (W) 19:30:43 145.795 - 145.815
CUTE 1.7 + AOD 2 24 Jun 19:32:27 19:36:21 36° 73° (ENE) 19:40:15 437.475
CUBEBUG 2 24 Jun 19:32:43 19:36:00 20° 68° (ENE) 19:39:21 437.445
RS-15 24 Jun 19:34:47 19:40:06 14° 96° (E) 19:45:27 29.354- 29.394
KAITUO 1B 24 Jun 19:41:08 19:44:17 25° 264° (W) 19:47:26 145.475/437.950
STARS 24 Jun 19:48:39 19:51:57 21° 292° (WNW) 19:55:15 437.465
SRMSAT 24 Jun 19:51:02 19:54:28 16° 186° (S) 19:57:53 437.500
XW-2A 24 Jun 19:51:50 19:55:05 41° 75° (ENE) 19:58:21 145.665 - 145.685
STRAND 1 24 Jun 19:55:09 19:59:05 22° 95° (E) 20:02:58 437.568
ZACube-1 24 Jun 20:06:56 20:09:34 15° 67° (ENE) 20:12:12 437.345
UWE-3 24 Jun 20:08:03 20:11:56 28° 70° (ENE) 20:15:53 435.000/436.395/437.385
AAUSAT CUBESAT 2 24 Jun 20:11:54 20:15:27 28° 72° (ENE) 20:18:59 437.432
HO-68 24 Jun 20:27:25 20:34:29 61° 258° (WSW) 20:41:37 435.675
PCSat 24 Jun 20:46:32 20:47:38 11° 44° (NE) 20:48:45 145.827
AO-85 24 Jun 20:51:59 20:55:48 36° 115° (ESE) 20:59:28 145.980
SEEDS 24 Jun 20:52:44 20:56:38 37° 262° (W) 21:00:32 437.485
AO-73 24 Jun 21:06:28 21:10:56 63° 75° (ENE) 21:15:29 145.935
CUBEBUG 2 24 Jun 21:08:10 21:12:17 35° 263° (W) 21:16:34 437.445
CUTE 1.7 + AOD 2 24 Jun 21:09:43 21:12:16 16° 267° (W) 21:14:50 437.475
BEESAT 3 24 Jun 21:29:31 21:33:20 52° 116° (ESE) 21:37:15 437.485
EO-88 24 Jun 21:29:56 21:31:10 11° 67° (ENE) 21:32:24 145.990 - 145.960
STRAND 1 24 Jun 21:33:34 21:38:19 38° 289° (WNW) 21:43:01 437.568
Oscar 11 24 Jun 21:35:10 21:39:30 78° 257° (WSW) 21:43:52 .
RS-15 24 Jun 21:38:21 21:50:19 73° 114° (ESE) 22:02:37 29.354- 29.394
ZACube-1 24 Jun 21:41:04 21:45:24 46° 261° (W) 21:49:49 437.345
NO-84 24 Jun 21:41:19 21:44:28 26° 124° (ESE) 21:47:51 435.350 FM
UWE-3 24 Jun 21:44:38 21:48:19 24° 265° (W) 21:52:03 435.000/436.395/437.385
DELFI C3 24 Jun 21:47:50 21:51:19 32° 73° (ENE) 21:54:49 145.870
AAUSAT CUBESAT 2 24 Jun 21:47:58 21:50:53 19° 266° (W) 21:53:48 437.432
O/OREOS (USA 219) 24 Jun 21:54:46 21:58:59 38° 105° (ESE) 22:03:12 437.305
YUBILEINY 24 Jun 22:13:17 22:21:27 45° 88° (E) 22:29:41 435.215
FO-29 24 Jun 22:25:51 22:33:03 38° 96° (E) 22:40:06 435.910
BEESAT 2 24 Jun 22:26:02 22:29:59 78° 118° (ESE) 22:34:00 435.950
PCSat 24 Jun 22:26:32 22:31:59 73° 63° (ENE) 22:37:22 145.827
UNISAT 6 24 Jun 22:30:58 22:34:27 21° 94° (E) 22:37:53 437.425
AO-85 24 Jun 22:33:32 22:36:15 17° 309° (NW) 22:38:56 145.980
AO-73 24 Jun 22:47:14 22:47:32 10° 270° (W) 22:47:50 145.935
EO-88 24 Jun 23:01:00 23:04:26 38° 261° (W) 23:07:54 145.990 - 145.960
BEESAT 3 24 Jun 23:09:13 23:11:14 13° 312° (NW) 23:13:15 437.485
NO-84 24 Jun 23:18:20 23:21:54 33° 321° (NW) 23:25:44 435.350 FM
M-CUBED/EXP-1 PRIME 24 Jun 23:21:45 23:25:26 57° 289° (WNW) 23:29:24 437.505
DELFI C3 24 Jun 23:23:55 23:26:09 15° 267° (W) 23:28:24 145.870
TIGRISAT 24 Jun 23:24:45 23:29:25 79° 102° (ESE) 23:33:58 435.000
LO-87 24 Jun 23:26:43 23:30:05 43° 74° (ENE) 23:33:28 145.935 - 145.965
PRISM 24 Jun 23:33:51 23:37:55 70° 285° (WNW) 23:42:00 437.425
O/OREOS (USA 219) 24 Jun 23:35:24 23:38:30 18° 300° (WNW) 23:41:37 437.305
ESTCUBE 1 24 Jun 23:45:27 23:49:44 45° 73° (ENE) 23:54:02 437.505/2401.250
SO-50 24 Jun 23:50:06 23:54:16 35° 55° (NE) 23:58:26 436.795
RS-15 24 Jun 23:53:03 00:03:54 36° 317° (NW) 00:14:56 29.354- 29.394
VELOX 1 24 Jun 23:53:44 23:55:30 12° 65° (ENE) 23:57:16 145.980
UNISAT 6 25 Jun 00:07:02 00:11:10 32° 289° (WNW) 00:15:12 437.425
EO-79 25 Jun 00:07:21 00:09:06 12° 92° (E) 00:10:49 145.935-145.965
YUBILEINY 25 Jun 00:10:30 00:18:19 35° 286° (WNW) 00:26:14 435.215
FO-29 25 Jun 00:10:42 00:17:56 43° 292° (WNW) 00:25:06 435.910
PCSat 25 Jun 00:12:34 00:14:40 12° 257° (WSW) 00:16:45 145.827
SPROUT 25 Jun 00:19:28 00:22:58 25° 70° (ENE) 00:26:29 437.525
DUCHIFAT 1 25 Jun 00:21:50 00:24:14 15° 93° (E) 00:26:36 145.980
NANOSAT C BR1 25 Jun 00:29:10 00:32:23 20° 95° (E) 00:35:33 145.865
AIST 2D 25 Jun 00:30:58 00:34:26 58° 100° (E) 00:37:51 435.315
50 SAT 25 Jun 00:54:59 00:57:40 22° 71° (ENE) 01:00:20 437.505
POLYITAN 1 25 Jun 01:05:13 01:09:29 64° 100° (E) 01:13:42 437.675
QB50P2 25 Jun 01:15:59 01:20:17 85° 282° (WNW) 01:24:31 145.880/145.840
ESTCUBE 1 25 Jun 01:24:25 01:26:44 14° 267° (W) 01:29:02 437.505/2401.250
VELOX 1 25 Jun 01:27:11 01:31:27 53° 260° (W) 01:35:44 145.980
SO-50 25 Jun 01:31:04 01:34:29 21° 249° (WSW) 01:37:54 436.795
BUGSAT 1 25 Jun 01:34:08 01:37:53 29° 97° (E) 01:41:34 437.445
EO-79 25 Jun 01:40:57 01:45:04 46° 286° (WNW) 01:49:08 145.935-145.965
DX 1 25 Jun 01:49:16 01:53:35 84° 74° (ENE) 01:57:55 434.975-435.025
SPROUT 25 Jun 01:55:25 01:58:47 23° 265° (W) 02:02:10 437.525
DUCHIFAT 1 25 Jun 01:56:04 02:00:01 38° 287° (WNW) 02:03:56 145.980
NANOSAT C BR1 25 Jun 02:04:24 02:08:02 28° 289° (WNW) 02:11:39 145.865
UKube-1 25 Jun 02:08:02 02:12:20 89° 261° (W) 02:16:39 .
